Time,TemperatureF,DewpointF,PressureIn,WindDirection,WindDirectionDegrees,WindSpeedMPH,WindSpeedGustMPH,Humidity,HourlyPrecipIn,Conditions,Clouds,dailyrainin,SoftwareType,DateUTC
2013-03-16 00:02:00,48.0,41.0,30.12,NW,311,0.0,0.0,76,0.00,,,0.00,,2013-03-16 04:02:00,
2013-03-16 00:13:00,48.0,41.0,30.12,NW,311,0.0,0.0,76,0.00,,,0.00,,2013-03-16 04:13:00,
2013-03-16 00:23:00,47.0,41.0,30.12,NW,311,0.0,0.0,78,0.00,,,0.00,,2013-03-16 04:23:00,
2013-03-16 00:33:00,47.0,41.0,30.12,NW,311,0.0,0.0,79,0.00,,,0.00,,2013-03-16 04:33:00,
2013-03-16 00:43:00,47.0,41.0,30.12,NW,311,0.0,0.0,79,0.00,,,0.00,,2013-03-16 04:43:00,
2013-03-16 00:53:00,47.0,41.0,30.11,NW,311,0.0,0.0,80,0.00,,,0.00,,2013-03-16 04:53:00,
2013-03-16 01:02:00,46.0,41.0,30.11,NW,311,0.0,0.0,81,0.00,,,0.00,,2013-03-16 05:02:00,
2013-03-16 01:12:00,46.0,41.0,30.11,NW,311,0.0,0.0,81,0.00,,,0.00,,2013-03-16 05:12:00,
2013-03-16 01:22:00,46.0,41.0,30.11,NW,311,0.0,0.0,81,0.00,,,0.00,,2013-03-16 05:22:00,
2013-03-16 01:32:00,46.0,41.0,30.11,NW,311,0.0,0.0,82,0.00,,,0.00,,2013-03-16 05:32:00,
2013-03-16 01:42:00,46.0,41.0,30.11,NW,311,0.0,0.0,82,0.00,,,0.00,,2013-03-16 05:42:00,
2013-03-16 01:53:00,45.0,40.0,30.10,NW,311,0.0,0.0,83,0.00,,,0.00,,2013-03-16 05:53:00,
2013-03-16 02:02:00,45.0,40.0,30.10,NW,311,0.0,0.0,84,0.00,,,0.00,,2013-03-16 06:02:00,
2013-03-16 02:12:00,45.0,40.0,30.10,NW,311,0.0,0.0,84,0.00,,,0.00,,2013-03-16 06:12:00,
2013-03-16 02:22:00,45.0,41.0,30.10,NW,311,0.0,0.0,85,0.00,,,0.00,,2013-03-16 06:22:00,
2013-03-16 02:32:00,45.0,41.0,30.11,ESE,109,0.0,0.0,85,0.00,,,0.00,,2013-03-16 06:32:00,
2013-03-16 02:42:00,45.0,41.0,30.11,ESE,109,0.0,0.0,85,0.00,,,0.00,,2013-03-16 06:42:00,
2013-03-16 02:52:00,45.0,41.0,30.10,ESE,109,0.0,0.0,86,0.00,,,0.00,,2013-03-16 06:52:00,
2013-03-16 03:02:00,44.0,40.0,30.10,ESE,109,0.0,0.0,86,0.00,,,0.00,,2013-03-16 07:02:00,
2013-03-16 03:12:00,44.0,40.0,30.10,ESE,109,0.0,0.0,86,0.00,,,0.00,,2013-03-16 07:12:00,
2013-03-16 03:22:00,44.0,40.0,30.09,ESE,109,0.0,0.0,87,0.00,,,0.00,,2013-03-16 07:22:00,
2013-03-16 03:32:00,44.0,40.0,30.09,ESE,109,0.0,0.0,87,0.00,,,0.00,,2013-03-16 07:32:00,
2013-03-16 03:42:00,44.0,40.0,30.09,ESE,109,0.0,0.0,87,0.00,,,0.00,,2013-03-16 07:42:00,
2013-03-16 03:52:00,43.0,39.0,30.08,ESE,109,0.0,0.0,87,0.00,,,0.00,,2013-03-16 07:52:00,
2013-03-16 04:03:00,43.0,40.0,30.08,ESE,109,0.0,0.0,88,0.00,,,0.00,,2013-03-16 08:03:00,
2013-03-16 04:12:00,43.0,40.0,30.08,ESE,109,0.0,0.0,88,0.00,,,0.00,,2013-03-16 08:12:00,
2013-03-16 04:23:00,43.0,40.0,30.08,ESE,109,0.0,0.0,88,0.00,,,0.00,,2013-03-16 08:23:00,
2013-03-16 04:32:00,43.0,40.0,30.08,ESE,109,0.0,0.0,88,0.00,,,0.00,,2013-03-16 08:32:00,
2013-03-16 04:42:00,43.0,40.0,30.08,ESE,109,0.0,0.0,88,0.00,,,0.00,,2013-03-16 08:42:00,
2013-03-16 04:52:00,42.0,39.0,30.08,ESE,109,0.0,0.0,88,0.00,,,0.00,,2013-03-16 08:52:00,
2013-03-16 05:02:00,42.0,39.0,30.08,ESE,109,0.0,0.0,88,0.00,,,0.00,,2013-03-16 09:02:00,
2013-03-16 05:12:00,42.0,39.0,30.08,ESE,109,0.0,0.0,88,0.00,,,0.00,,2013-03-16 09:12:00,
2013-03-16 05:22:00,42.0,39.0,30.07,ESE,109,0.0,0.0,88,0.00,,,0.00,,2013-03-16 09:22:00,
2013-03-16 05:33:00,42.0,39.0,30.07,ESE,109,0.0,0.0,89,0.00,,,0.00,,2013-03-16 09:33:00,
2013-03-16 05:42:00,42.0,39.0,30.07,ESE,109,0.0,0.0,89,0.00,,,0.00,,2013-03-16 09:42:00,
2013-03-16 05:53:00,42.0,39.0,30.07,ESE,109,0.0,0.0,89,0.00,,,0.00,,2013-03-16 09:53:00,
2013-03-16 06:03:00,42.0,39.0,30.07,ESE,109,0.0,0.0,89,0.00,,,0.00,,2013-03-16 10:03:00,
2013-03-16 06:12:00,42.0,39.0,30.07,ESE,109,0.0,0.0,89,0.00,,,0.00,,2013-03-16 10:12:00,
2013-03-16 06:23:00,41.0,38.0,30.08,ESE,109,0.0,0.0,89,0.00,,,0.00,,2013-03-16 10:23:00,
2013-03-16 06:32:00,41.0,38.0,30.08,ESE,109,0.0,0.0,89,0.00,,,0.00,,2013-03-16 10:32:00,
2013-03-16 06:42:00,41.0,38.0,30.08,ESE,109,0.0,0.0,89,0.00,,,0.00,,2013-03-16 10:42:00,
2013-03-16 06:53:00,41.0,38.0,30.09,ESE,109,0.0,0.0,89,0.00,,,0.00,,2013-03-16 10:53:00,
2013-03-16 07:03:00,41.0,38.0,30.09,ESE,109,0.0,0.0,89,0.00,,,0.00,,2013-03-16 11:03:00,
2013-03-16 07:12:00,41.0,38.0,30.09,ESE,109,0.0,0.0,89,0.00,,,0.00,,2013-03-16 11:12:00,
2013-03-16 07:22:00,41.0,38.0,30.09,ESE,109,0.0,0.0,90,0.00,,,0.00,,2013-03-16 11:22:00,
2013-03-16 07:32:00,40.0,37.0,30.09,ESE,109,0.0,0.0,90,0.00,,,0.00,,2013-03-16 11:32:00,
2013-03-16 07:43:00,40.0,37.0,30.09,ESE,109,0.0,0.0,90,0.00,,,0.00,,2013-03-16 11:43:00,
2013-03-16 07:53:00,40.0,37.0,30.09,ESE,109,0.0,0.0,90,0.00,,,0.00,,2013-03-16 11:53:00,
2013-03-16 08:02:00,40.0,37.0,30.09,ESE,109,0.0,0.0,90,0.00,,,0.00,,2013-03-16 12:02:00,
2013-03-16 08:12:00,40.0,37.0,30.09,ESE,109,0.0,0.0,90,0.00,,,0.00,,2013-03-16 12:12:00,
2013-03-16 08:22:00,41.0,38.0,30.10,ESE,109,0.0,0.0,90,0.00,,,0.00,,2013-03-16 12:22:00,
2013-03-16 08:32:00,41.0,39.0,30.10,ESE,109,0.0,0.0,91,0.00,,,0.00,,2013-03-16 12:32:00,
2013-03-16 08:42:00,41.0,39.0,30.10,ESE,109,0.0,0.0,91,0.00,,,0.00,,2013-03-16 12:42:00,
2013-03-16 08:53:00,42.0,40.0,30.11,ESE,109,0.0,0.0,91,0.00,,,0.00,,2013-03-16 12:53:00,
2013-03-16 09:02:00,44.0,42.0,30.11,ESE,109,0.0,0.0,92,0.00,,,0.00,,2013-03-16 13:02:00,
2013-03-16 09:12:00,44.0,42.0,30.11,ESE,109,0.0,0.0,92,0.00,,,0.00,,2013-03-16 13:12:00,
2013-03-16 09:22:00,48.0,46.0,30.11,ESE,109,0.0,0.0,93,0.00,,,0.00,,2013-03-16 13:22:00,
2013-03-16 09:32:00,52.0,50.0,30.11,ESE,109,0.0,0.0,92,0.00,,,0.00,,2013-03-16 13:32:00,
2013-03-16 09:42:00,52.0,50.0,30.11,ESE,109,0.0,0.0,92,0.00,,,0.00,,2013-03-16 13:42:00,
2013-03-16 09:53:00,56.0,52.0,30.11,East,98,0.0,0.0,85,0.00,,,0.00,,2013-03-16 13:53:00,
2013-03-16 10:03:00,60.0,51.0,30.11,SE,125,0.0,0.0,71,0.00,,,0.00,,2013-03-16 14:03:00,
2013-03-16 10:12:00,60.0,51.0,30.11,SE,125,0.0,0.0,71,0.00,,,0.00,,2013-03-16 14:12:00,
2013-03-16 10:22:00,62.0,49.0,30.11,East,86,0.0,0.0,62,0.00,,,0.00,,2013-03-16 14:22:00,
2013-03-16 10:32:00,65.0,51.0,30.11,ESE,103,0.0,0.0,61,0.00,,,0.00,,2013-03-16 14:32:00,
2013-03-16 10:42:00,65.0,51.0,30.11,ESE,103,0.0,0.0,61,0.00,,,0.00,,2013-03-16 14:42:00,
2013-03-16 10:52:00,67.0,52.0,30.11,South,176,0.0,0.0,58,0.00,,,0.00,,2013-03-16 14:52:00,
2013-03-16 11:03:00,67.0,51.0,30.11,SSW,209,1.0,6.0,57,0.00,,,0.00,,2013-03-16 15:03:00,
2013-03-16 11:13:00,67.0,51.0,30.11,SSW,209,1.0,6.0,57,0.00,,,0.00,,2013-03-16 15:13:00,
2013-03-16 11:23:00,69.0,52.0,30.11,SSW,200,0.0,0.0,55,0.00,,,0.00,,2013-03-16 15:23:00,
2013-03-16 11:33:00,69.0,51.0,30.10,SW,221,4.0,7.0,52,0.00,,,0.00,,2013-03-16 15:33:00,
2013-03-16 11:43:00,69.0,51.0,30.10,SW,221,4.0,7.0,52,0.00,,,0.00,,2013-03-16 15:43:00,
2013-03-16 11:53:00,70.0,48.0,30.10,SSW,205,1.0,6.0,45,0.00,,,0.00,,2013-03-16 15:53:00,
2013-03-16 12:03:00,72.0,50.0,30.10,ESE,104,0.0,2.0,46,0.00,,,0.00,,2013-03-16 16:03:00,
2013-03-16 12:13:00,72.0,50.0,30.10,ESE,104,0.0,2.0,46,0.00,,,0.00,,2013-03-16 16:13:00,
2013-03-16 12:23:00,73.0,44.0,30.10,West,262,0.0,0.0,36,0.00,,,0.00,,2013-03-16 16:23:00,
2013-03-16 12:33:00,73.0,45.0,30.09,SW,217,0.0,0.0,37,0.00,,,0.00,,2013-03-16 16:33:00,
2013-03-16 12:42:00,73.0,45.0,30.09,SW,217,0.0,0.0,37,0.00,,,0.00,,2013-03-16 16:42:00,
2013-03-16 12:53:00,74.0,45.0,30.09,WSW,250,0.0,0.0,36,0.00,,,0.00,,2013-03-16 16:53:00,
2013-03-16 13:03:00,75.0,45.0,30.09,SSW,213,0.0,0.0,34,0.00,,,0.00,,2013-03-16 17:03:00,
2013-03-16 13:13:00,75.0,45.0,30.09,SSW,213,0.0,0.0,34,0.00,,,0.00,,2013-03-16 17:13:00,
2013-03-16 13:23:00,75.0,45.0,30.07,SW,234,0.0,0.0,34,0.00,,,0.00,,2013-03-16 17:23:00,
2013-03-16 13:33:00,77.0,46.0,30.06,West,279,0.0,0.0,33,0.00,,,0.00,,2013-03-16 17:33:00,
2013-03-16 13:42:00,77.0,46.0,30.06,West,279,0.0,0.0,33,0.00,,,0.00,,2013-03-16 17:42:00,
2013-03-16 13:53:00,76.0,42.0,30.06,ESE,119,0.0,0.0,30,0.00,,,0.00,,2013-03-16 17:53:00,
2013-03-16 14:02:00,77.0,41.0,30.05,SSE,156,0.0,0.0,28,0.00,,,0.00,,2013-03-16 18:02:00,
2013-03-16 14:13:00,77.0,41.0,30.05,SSE,156,0.0,0.0,28,0.00,,,0.00,,2013-03-16 18:13:00,
2013-03-16 14:23:00,77.0,40.0,30.04,SW,214,6.0,8.0,27,0.00,,,0.00,,2013-03-16 18:23:00,
2013-03-16 14:33:00,77.0,40.0,30.04,North,355,0.0,0.0,27,0.00,,,0.00,,2013-03-16 18:33:00,
2013-03-16 14:43:00,77.0,40.0,30.04,North,355,0.0,0.0,27,0.00,,,0.00,,2013-03-16 18:43:00,
2013-03-16 14:53:00,77.0,40.0,30.03,SW,214,3.0,6.0,27,0.00,,,0.00,,2013-03-16 18:53:00,
2013-03-16 15:02:00,80.0,44.0,30.02,WNW,283,4.0,6.0,28,0.00,,,0.00,,2013-03-16 19:02:00,
2013-03-16 15:12:00,80.0,44.0,30.02,WNW,283,4.0,6.0,28,0.00,,,0.00,,2013-03-16 19:12:00,
2013-03-16 15:22:00,79.0,45.0,30.02,NW,305,3.0,7.0,30,0.00,,,0.00,,2013-03-16 19:22:00,
2013-03-16 15:32:00,79.0,45.0,30.02,NW,305,3.0,7.0,30,0.00,,,0.00,,2013-03-16 19:32:00,
2013-03-16 15:42:00,79.0,45.0,30.02,NW,305,3.0,7.0,30,0.00,,,0.00,,2013-03-16 19:42:00,
2013-03-16 15:53:00,79.0,45.0,30.01,SSW,213,3.0,7.0,30,0.00,,,0.00,,2013-03-16 19:53:00,
2013-03-16 16:02:00,78.0,47.0,30.01,WSW,238,6.0,10.0,33,0.00,,,0.00,,2013-03-16 20:02:00,
2013-03-16 16:12:00,78.0,47.0,30.01,WSW,238,6.0,10.0,33,0.00,,,0.00,,2013-03-16 20:12:00,
2013-03-16 16:22:00,76.0,45.0,30.01,SW,228,6.0,10.0,33,0.00,,,0.00,,2013-03-16 20:22:00,
2013-03-16 16:33:00,77.0,49.0,30.01,NW,311,2.0,7.0,37,0.00,,,0.00,,2013-03-16 20:33:00,
2013-03-16 16:42:00,77.0,49.0,30.01,NW,311,2.0,7.0,37,0.00,,,0.00,,2013-03-16 20:42:00,
2013-03-16 16:53:00,75.0,46.0,30.00,West,277,5.0,9.0,36,0.00,,,0.00,,2013-03-16 20:53:00,
2013-03-16 17:02:00,76.0,49.0,30.00,West,263,1.0,7.0,38,0.00,,,0.00,,2013-03-16 21:02:00,
2013-03-16 17:12:00,76.0,49.0,30.00,West,263,1.0,7.0,38,0.00,,,0.00,,2013-03-16 21:12:00,
2013-03-16 17:23:00,75.0,47.0,30.00,South,186,0.0,0.0,37,0.00,,,0.00,,2013-03-16 21:23:00,
2013-03-16 17:33:00,75.0,47.0,30.00,SW,234,2.0,7.0,37,0.00,,,0.00,,2013-03-16 21:33:00,
2013-03-16 17:43:00,75.0,47.0,30.00,SW,234,2.0,7.0,37,0.00,,,0.00,,2013-03-16 21:43:00,
2013-03-16 17:53:00,73.0,45.0,30.00,SW,217,4.0,9.0,37,0.00,,,0.00,,2013-03-16 21:53:00,
2013-03-16 18:03:00,73.0,48.0,30.00,SW,234,4.0,9.0,41,0.00,,,0.00,,2013-03-16 22:03:00,
2013-03-16 18:13:00,73.0,48.0,30.00,SW,234,4.0,9.0,41,0.00,,,0.00,,2013-03-16 22:13:00,
2013-03-16 18:23:00,73.0,49.0,30.00,SW,232,3.0,6.0,42,0.00,,,0.00,,2013-03-16 22:23:00,
2013-03-16 18:33:00,73.0,49.0,30.00,SW,232,3.0,6.0,42,0.00,,,0.00,,2013-03-16 22:33:00,
2013-03-16 18:42:00,73.0,49.0,30.00,SW,232,3.0,6.0,42,0.00,,,0.00,,2013-03-16 22:42:00,
2013-03-16 18:53:00,71.0,49.0,30.00,WNW,287,1.0,4.0,45,0.00,,,0.00,,2013-03-16 22:53:00,
2013-03-16 19:02:00,69.0,48.0,30.01,SW,233,0.0,0.0,47,0.00,,,0.00,,2013-03-16 23:02:00,
2013-03-16 19:13:00,69.0,48.0,30.01,SW,233,0.0,0.0,47,0.00,,,0.00,,2013-03-16 23:13:00,
2013-03-16 19:23:00,68.0,49.0,30.01,West,272,0.0,3.0,50,0.00,,,0.00,,2013-03-16 23:23:00,
2013-03-16 19:33:00,68.0,50.0,30.01,West,259,0.0,0.0,53,0.00,,,0.00,,2013-03-16 23:33:00,
2013-03-16 19:42:00,68.0,50.0,30.01,West,259,0.0,0.0,53,0.00,,,0.00,,2013-03-16 23:42:00,
2013-03-16 19:53:00,67.0,51.0,30.01,SW,231,0.0,0.0,56,0.00,,,0.00,,2013-03-16 23:53:00,
2013-03-16 20:02:00,67.0,52.0,30.01,WSW,240,0.0,0.0,58,0.00,,,0.00,,2013-03-17 00:02:00,
2013-03-16 20:12:00,67.0,52.0,30.01,WSW,240,0.0,0.0,58,0.00,,,0.00,,2013-03-17 00:12:00,
2013-03-16 20:22:00,65.0,51.0,30.02,WSW,242,0.0,0.0,60,0.00,,,0.00,,2013-03-17 00:22:00,
2013-03-16 20:33:00,64.0,51.0,30.02,WSW,242,0.0,0.0,63,0.00,,,0.00,,2013-03-17 00:33:00,
2013-03-16 20:42:00,64.0,51.0,30.02,WSW,242,0.0,0.0,63,0.00,,,0.00,,2013-03-17 00:42:00,
2013-03-16 20:52:00,62.0,50.0,30.02,WSW,242,0.0,0.0,64,0.00,,,0.00,,2013-03-17 00:52:00,
2013-03-16 21:02:00,62.0,50.0,30.02,WSW,242,0.0,0.0,65,0.00,,,0.00,,2013-03-17 01:02:00,
2013-03-16 21:12:00,62.0,50.0,30.02,WSW,242,0.0,0.0,65,0.00,,,0.00,,2013-03-17 01:12:00,
2013-03-16 21:22:00,60.0,49.0,30.02,WSW,242,0.0,0.0,67,0.00,,,0.00,,2013-03-17 01:22:00,
2013-03-16 21:32:00,59.0,50.0,30.02,WSW,242,0.0,0.0,71,0.00,,,0.00,,2013-03-17 01:32:00,
2013-03-16 21:42:00,59.0,50.0,30.02,WSW,242,0.0,0.0,71,0.00,,,0.00,,2013-03-17 01:42:00,
2013-03-16 21:53:00,58.0,50.0,30.02,WSW,242,0.0,0.0,74,0.00,,,0.00,,2013-03-17 01:53:00,
2013-03-16 22:03:00,57.0,49.0,30.02,WSW,242,0.0,0.0,75,0.00,,,0.00,,2013-03-17 02:03:00,
2013-03-16 22:13:00,57.0,49.0,30.02,WSW,242,0.0,0.0,75,0.00,,,0.00,,2013-03-17 02:13:00,
2013-03-16 22:22:00,56.0,49.0,30.03,WSW,242,0.0,0.0,76,0.00,,,0.00,,2013-03-17 02:22:00,
2013-03-16 22:33:00,56.0,49.0,30.03,WSW,242,0.0,0.0,77,0.00,,,0.00,,2013-03-17 02:33:00,
2013-03-16 22:43:00,56.0,49.0,30.03,WSW,242,0.0,0.0,77,0.00,,,0.00,,2013-03-17 02:43:00,
2013-03-16 22:53:00,55.0,49.0,30.03,WSW,242,0.0,0.0,79,0.00,,,0.00,,2013-03-17 02:53:00,
2013-03-16 23:03:00,55.0,49.0,30.03,WSW,242,0.0,0.0,80,0.00,,,0.00,,2013-03-17 03:03:00,
2013-03-16 23:12:00,55.0,49.0,30.03,WSW,242,0.0,0.0,80,0.00,,,0.00,,2013-03-17 03:12:00,
2013-03-16 23:23:00,54.0,48.0,30.04,WSW,242,0.0,0.0,81,0.00,,,0.00,,2013-03-17 03:23:00,
2013-03-16 23:34:00,53.0,48.0,30.04,WSW,242,0.0,0.0,82,0.00,,,0.00,,2013-03-17 03:34:00,
2013-03-16 23:43:00,53.0,48.0,30.04,WSW,242,0.0,0.0,82,0.00,,,0.00,,2013-03-17 03:43:00,
2013-03-16 23:53:00,53.0,48.0,30.04,WSW,242,0.0,0.0,82,0.00,,,0.00,,2013-03-17 03:53:00,